Location: Fatehalanka
(16.3139°N, 80.8379°E)
Time: 10:35:50
(UTC+00:00)

Cosmos 1707 Rocket - Pass Details

Date: 14 May 2026
Orbit: 599 x 623 km, 82.5° (Epoch: 6 June)

Event Time Altitude Azimuth Distance (km) Brightness Sun altitude
Exits shadow 22:49:53 36° 259° (W) 962 4.0 -17.7°
Maximum altitude 22:50:23 37° 276° (W) 938 4.0 -17.6°
Drops below altitude 10° 22:54:20 10° 344° (NNW) 1,934 6.2 -16.8°
Sets 22:56:40 0° 353° (N) 2,836 7.2 -16.3°
